Wind_Speed
32 33 34 33 33 32 31 29 27 26 31 33 30 31 28 27 32 37 43 49 51 57 63 69 75 70 64 60 57 65 73 77 75 78 81 83 85 83
33 31 31 31 32 34 33 30 29 27 26 32 29 31 32 29 27 36 40 48 52 54 59 64 64 61 56 63 65 62 72 78 75 76 79 83 85 83
31 31 33 31 32 33 33 34 31 31 28 31 29 29 30 30 29 33 40 46 53 55 58 62 63 58 55 59 63 66 74 76 75 74 76 82 83 83
37 34 34 34 34 32 33 33 34 34 31 33 31 29 29 29 28 32 39 44 50 55 58 60 62 59 54 55 61 70 76 71 75 74 73 76 79 80
38 39 37 36 31 33 31 34 33 31 32 33 36 32 30 29 28 29 34 41 47 53 59 60 60 59 56 53 59 69 72 69 77 74 72 71 73 75
43 41 41 40 35 33 27 26 31 33 31 33 35 34 31 29 27 26 27 33 41 51 57 59 58 59 56 54 58 62 66 69 75 73 71 69 68 70
46 45 44 38 31 29 30 28 29 27 31 31 32 34 30 27 26 25 27 30 34 41 54 58 57 57 55 53 56 61 64 68 73 71 69 66 66 67
50 45 42 41 38 33 33 28 21 21 23 30 28 30 27 25 24 22 24 27 32 36 44 52 55 56 55 52 55 60 64 68 70 69 67 64 64 65
51 50 45 41 38 34 25 24 20 16 16 22 23 26 25 23 22 19 22 31 33 35 41 48 52 53 51 50 54 59 65 67 67 66 66 63 62 63
54 52 45 40 37 30 25 24 18 11 11 16 20 22 20 19 18 19 23 34 33 33 39 47 50 50 49 50 54 60 65 64 63 64 64 63 63 63
57 52 46 41 37 30 22 18 13 4 7 9 13 14 13 14 14 18 25 35 33 33 40 47 47 47 47 49 54 59 62 60 60 62 63 64 63 63
58 50 45 39 32 29 26 18 15 9 3 7 10 10 11 14 16 20 27 36 32 33 41 45 44 44 46 48 53 57 59 58 59 61 63 63 64 63
58 52 46 41 29 32 24 19 11 8 2 3 3 6 10 11 16 21 30 35 32 33 41 44 43 44 46 49 52 54 57 57 58 60 63 63 65 64
55 55 48 44 35 33 26 20 15 8 5 1 2 5 8 11 17 23 35 35 31 33 40 43 42 43 47 49 51 52 55 56 57 58 62 62 65 63
59 58 50 47 41 35 30 23 18 14 10 6 3 7 9 13 20 29 36 34 31 33 39 43 42 42 45 47 49 52 54 56 57 58 61 62 63 62
60 58 52 49 43 40 35 29 22 17 13 9 6 9 14 19 24 36 36 34 30 32 39 42 41 41 44 45 48 52 55 56 57 57 59 61 62 61
58 59 55 53 47 46 41 34 27 21 17 13 11 13 16 23 35 40 36 32 29 33 38 42 41 41 43 46 49 53 56 57 58 58 59 60 61 61
55 58 56 53 50 51 50 42 34 27 22 19 17 19 23 33 39 37 33 29 28 31 36 42 42 42 44 47 49 53 56 57 58 58 59 58 59 61
62 62 57 54 52 55 55 50 42 37 33 30 29 30 34 38 37 34 31 28 26 29 34 40 42 41 43 46 49 53 55 56 57 58 57 57 58 60
70 60 58 53 52 53 53 51 47 44 40 38 36 37 37 33 30 28 27 26 27 29 31 36 41 42 42 46 49 51 54 54 55 58 57 57 57 59
69 65 58 54 51 48 47 47 45 44 42 39 36 32 29 26 25 24 24 23 24 27 30 33 38 42 43 45 48 51 53 53 53 56 57 56 56 58
65 68 61 55 48 45 42 41 41 39 37 34 31 28 25 22 21 19 18 17 19 22 27 33 37 42 44 47 48 50 51 52 51 53 57 55 55 56
59 61 63 56 50 43 38 35 35 35 34 32 30 27 23 20 17 14 13 12 13 17 23 31 37 41 44 47 48 49 51 51 50 51 56 56 56 56
Wind_Direction
325 319 313 306 300 293 288 280 273 264 260 258 257 249 244 247 248 238 229 226 225 219 218 217 221 221 222 222 215 202 203 205 204 203 202 202 204 206
335 331 323 313 298 289 282 277 272 265 256 258 252 248 246 244 247 243 232 224 225 224 222 221 222 220 220 220 220 210 202 203 203 202 201 202 203 205
339 339 335 330 312 289 277 272 270 266 256 257 250 248 246 246 244 244 236 225 222 222 223 222 222 218 213 211 213 208 200 201 203 201 201 202 203 205
334 333 332 328 321 314 285 269 267 264 258 251 253 248 247 250 249 244 238 230 224 221 220 221 220 218 212 210 209 206 198 200 202 201 200 202 203 204
332 327 321 321 318 321 303 277 266 264 258 250 248 247 249 252 254 250 242 234 229 224 219 218 217 215 210 209 208 205 198 199 200 199 199 201 202 203
339 332 330 319 314 314 304 302 276 265 259 251 245 244 247 252 255 252 241 230 227 222 219 217 214 211 209 208 207 204 199 199 200 199 198 200 199 201
348 339 333 334 326 310 305 299 292 273 255 249 242 239 241 248 251 247 233 228 222 214 212 212 208 206 206 206 204 202 198 198 199 198 197 198 197 197
351 347 346 338 330 314 318 309 289 282 258 241 237 231 232 242 248 244 229 216 206 204 201 199 199 200 201 201 199 199 197 197 198 197 196 196 195 194
357 355 348 343 336 340 335 333 321 278 259 227 224 222 227 237 243 235 216 201 199 197 197 192 193 195 196 197 195 195 194 195 197 195 193 193 193 191
3 360 358 349 348 347 343 339 334 274 226 213 209 212 223 236 236 222 209 194 193 191 188 186 189 191 192 192 191 192 192 193 194 193 191 191 189 188
5 4 4 0 359 1 6 5 1 309 210 191 197 208 225 221 218 205 198 189 187 185 183 183 186 188 189 189 188 189 189 190 191 191 190 190 188 187
5 8 9 10 13 23 18 19 29 33 79 156 184 208 218 212 197 192 189 184 182 180 180 182 183 184 185 186 185 187 187 187 188 188 189 189 187 186
12 13 15 16 11 11 7 6 20 27 40 153 203 219 202 202 190 185 179 180 176 177 179 181 180 180 182 183 182 184 184 184 185 187 187 187 187 187
10 15 17 18 14 12 19 20 24 36 33 349 213 183 189 182 173 176 174 172 170 173 177 179 178 179 180 181 179 180 181 183 184 186 186 186 187 186
14 15 17 20 20 26 26 27 31 36 40 40 114 159 160 166 167 169 167 164 166 170 175 178 177 177 180 179 176 177 179 181 183 184 184 186 187 186
17 18 21 22 26 28 28 29 34 38 38 43 83 131 149 153 160 161 161 159 161 168 172 174 175 176 178 177 175 177 179 180 181 183 184 185 186 186
18 19 21 23 29 30 31 33 38 42 46 50 80 118 139 150 154 155 153 154 158 164 169 172 173 174 175 175 175 177 179 180 181 182 184 185 186 186
21 23 24 26 32 34 34 36 42 48 54 67 89 111 130 140 147 147 148 149 154 163 167 171 174 173 173 173 175 177 179 180 181 183 184 185 186 186
26 27 26 29 35 37 36 39 47 56 64 76 92 109 124 135 139 142 145 147 154 162 166 171 175 172 172 172 175 177 178 181 182 183 184 185 186 186
25 29 30 34 37 40 40 43 52 61 70 81 93 105 114 120 128 137 143 147 154 160 165 170 174 173 171 173 174 177 178 181 183 183 184 185 185 186
26 29 33 35 40 43 46 48 53 62 70 78 86 94 101 110 120 131 140 146 151 157 164 168 172 174 173 172 174 176 178 180 182 184 185 185 185 185
27 28 31 36 41 45 46 49 51 56 60 67 75 81 88 96 106 114 122 132 143 154 163 168 171 173 174 173 174 176 179 181 183 184 185 185 187 187
29 30 30 33 36 41 46 47 46 48 50 53 57 61 65 73 77 88 103 120 138 152 162 167 171 173 173 174 174 177 179 181 182 184 185 186 187 187
Height
5433 5424 5416 5409 5404 5398 5395 5391 5389 5387 5385 5385 5387 5388 5390 5391 5393 5397 5402 5408 5413 5421 5429 5438 5445 5456 5466 5476 5486 5498 5510 5521 5537 5552 5570 5586 5601 5616
5424 5415 5407 5400 5393 5387 5382 5379 5377 5376 5375 5373 5375 5376 5378 5380 5382 5384 5389 5395 5401 5409 5416 5424 5434 5445 5454 5463 5474 5486 5496 5511 5527 5541 5558 5574 5589 5604
5415 5405 5396 5388 5380 5373 5369 5366 5365 5363 5365 5361 5363 5364 5366 5368 5370 5372 5375 5380 5387 5395 5402 5410 5420 5432 5443 5452 5462 5473 5485 5503 5517 5532 5548 5563 5578 5594
5406 5396 5386 5377 5368 5360 5354 5352 5350 5350 5351 5351 5351 5353 5355 5356 5358 5360 5362 5366 5373 5380 5388 5397 5408 5420 5434 5444 5453 5465 5479 5495 5505 5522 5539 5552 5568 5584
5397 5386 5376 5367 5357 5348 5341 5337 5336 5336 5337 5339 5339 5341 5343 5345 5347 5348 5350 5352 5358 5365 5374 5385 5397 5411 5423 5434 5444 5456 5471 5484 5497 5515 5530 5544 5559 5575
5387 5375 5365 5355 5345 5336 5329 5325 5322 5322 5323 5326 5327 5330 5333 5335 5336 5337 5339 5341 5344 5352 5364 5375 5387 5401 5414 5425 5435 5448 5464 5476 5491 5508 5523 5537 5552 5567
5380 5367 5355 5343 5333 5325 5318 5314 5310 5309 5310 5312 5316 5318 5322 5326 5327 5327 5328 5331 5335 5342 5352 5366 5379 5395 5407 5419 5430 5443 5457 5470 5485 5501 5516 5531 5546 5561
5376 5361 5348 5335 5324 5314 5307 5302 5299 5298 5298 5300 5304 5309 5313 5317 5318 5319 5321 5325 5330 5336 5346 5358 5373 5387 5400 5412 5423 5436 5451 5465 5479 5495 5511 5526 5540 5555
5371 5356 5341 5328 5316 5306 5299 5294 5290 5288 5288 5291 5296 5301 5305 5309 5311 5313 5316 5320 5326 5334 5344 5356 5370 5383 5395 5407 5418 5431 5446 5461 5475 5492 5508 5522 5536 5551
5368 5352 5337 5323 5311 5302 5295 5289 5284 5283 5283 5286 5290 5295 5300 5303 5305 5307 5311 5317 5325 5334 5344 5356 5368 5380 5392 5402 5413 5427 5443 5458 5473 5489 5504 5518 5532 5547
5366 5350 5335 5321 5309 5299 5293 5288 5284 5282 5282 5284 5289 5293 5297 5299 5301 5304 5309 5316 5326 5334 5343 5355 5367 5379 5390 5401 5412 5426 5441 5457 5472 5486 5500 5514 5529 5543
5366 5350 5335 5322 5312 5304 5297 5291 5287 5285 5284 5286 5289 5291 5293 5295 5298 5302 5307 5317 5326 5334 5344 5356 5367 5379 5390 5401 5412 5426 5441 5455 5469 5482 5497 5511 5526 5540
5368 5353 5338 5325 5315 5307 5299 5294 5289 5287 5287 5288 5289 5290 5291 5293 5296 5301 5308 5317 5326 5335 5346 5357 5368 5378 5389 5399 5411 5425 5440 5454 5467 5480 5494 5508 5522 5536
5371 5355 5341 5328 5318 5309 5301 5295 5291 5288 5287 5287 5287 5288 5289 5292 5296 5301 5309 5320 5329 5338 5348 5360 5370 5379 5388 5399 5411 5426 5440 5454 5467 5480 5494 5507 5521 5534
5373 5359 5345 5333 5322 5313 5306 5299 5294 5289 5287 5286 5286 5287 5289 5292 5297 5303 5314 5324 5332 5341 5350 5362 5371 5381 5391 5402 5413 5427 5442 5455 5467 5480 5493 5506 5520 5533
5378 5364 5352 5340 5329 5319 5310 5303 5297 5292 5289 5287 5286 5287 5290 5293 5299 5308 5319 5328 5336 5345 5354 5365 5375 5384 5394 5405 5416 5429 5442 5455 5468 5480 5492 5506 5519 5532
5385 5370 5358 5347 5336 5326 5316 5308 5301 5296 5292 5289 5288 5290 5293 5297 5305 5315 5325 5334 5341 5349 5357 5367 5377 5386 5395 5406 5417 5430 5443 5455 5467 5480 5492 5504 5517 5530
5397 5384 5371 5358 5346 5335 5325 5315 5307 5301 5296 5294 5294 5295 5300 5307 5317 5326 5335 5342 5348 5355 5362 5371 5380 5388 5397 5408 5419 5430 5443 5456 5468 5480 5491 5503 5516 5528
5408 5395 5382 5370 5358 5348 5338 5327 5319 5312 5307 5305 5305 5308 5314 5321 5329 5336 5343 5349 5355 5362 5368 5376 5384 5392 5401 5410 5420 5432 5444 5456 5468 5481 5493 5504 5516 5528
5419 5406 5393 5382 5372 5363 5354 5346 5338 5331 5326 5325 5325 5327 5331 5337 5341 5346 5351 5356 5361 5366 5373 5379 5388 5396 5404 5413 5423 5434 5446 5458 5469 5480 5491 5503 5515 5527
5429 5417 5406 5395 5386 5379 5372 5365 5359 5354 5349 5347 5346 5347 5348 5350 5353 5356 5359 5363 5367 5371 5377 5383 5391 5399 5407 5416 5426 5437 5448 5459 5470 5481 5493 5504 5515 5526
5442 5429 5418 5409 5400 5393 5388 5382 5378 5373 5370 5366 5364 5363 5363 5364 5365 5367 5369 5371 5373 5377 5381 5386 5393 5401 5408 5418 5428 5439 5450 5460 5471 5481 5493 5505 5516 5526
5455 5444 5433 5422 5415 5407 5401 5396 5392 5389 5385 5382 5379 5377 5376 5375 5375 5375 5376 5377 5379 5381 5384 5389 5395 5402 5410 5419 5429 5440 5451 5461 5472 5483 5493 5503 5513 5525